Location: Unspecified
(0.0000°N, 0.0000°E)
Time: 06:06:19
(UTC+00:00)

Transit 2A - Pass Details

Date: 08 October 2020
Orbit: 593 x 966 km, 66.7° (Epoch: 28 October)

Event Time Altitude Azimuth Distance (km) Brightness Sun altitude
Rises 15:03:06 0° 15° (NNE) 3,181 9.0 40.8°
Reaches altitude 10° 15:07:13 10° 46° (NE) 2,162 8.1 39.8°
Maximum altitude 15:08:55 12° 67° (ENE) 2,011 7.8 39.3°
Drops below altitude 10° 15:10:34 10° 88° (E) 2,091 7.9 38.9°
Sets 15:14:20 0° 120° (ESE) 2,930 8.7 38.0°
